STARLINK-38071, 69992

Orbit data source: Space-Track

STARLINK-38071, 69992 is a payload satellite owned by SpaceX/Seattle (US) in SSO that was launched on Sat, 11 Jul 2026 UTC via an FALCON 9 launch vehicle from the Air Force Western Test Range (AFWTR). Payload-class satellites include a variety of spacecraft equipped with specific instruments for various scientific and technological missions. These include communications satellites like Starlink; space stations such as the ISS; scientific satellites like the Hubble; Earth observation satellites from companies like Planet Labs, Umbra, and HawkEye 360; GPS; miniature CubeSats for education and research; and military/defense satellites.

Loading next visibility...
Identifier
69992, 2026-159T
Orbit
SSO
Country
Flag of USUS
Related business
Manufacturer
SpaceX/Seattle
Mission
Operational spacecraft
Bus & Motor
STARLINK V2MO, Unknown motor
Mass
575 kg wet, ~530 kg dry
Launch date (UTC)
2026-07-11 (1 month ago)
Launch vehicle
FALCON 9
Launch site
Air Force Western Test Range (AFWTR)
Object type
Payload
Rocket body
Debris
Shape & HBR
BOX + PAN, 17.7 m
Radar Cross Section
Large (>1 m²)

Expand to show TLE details & history
Last TLE update: 13 hours ago

TLE from 13 hours ago
0 STARLINK-38071
1 69992U 26159T   26228.54994374  .00107478  00000-0  71191-3 0  9992
2 69992  97.2845  68.9232 0001521  43.4752 316.6633 15.75206132  6967
Epoch: 2026-08-16T13:11Z
TLE epoch observation values (Epoch: 2026-08-16T13:11:55.139Z)
Latitude
0.00001°
Longitude
-94.00141°
Altitude
346.469 km
Speed
7.701 km/s
True Right ascension
04h 35m 41s
True Declination
0° 00' 00"
Sunlit
Object was in daylight at epoch
Visualization orbit readout
Latitude
Unknown
Longitude
Unknown
Altitude
Unknown
Speed
Unknown
Apparent Right ascension
Unknown
Apparent Declination
Unknown
Sunlit
N/A
Visualization observer readout
Local Sidereal Time
16:55:33
Azimuth
Unknown
Elevation
Unknown
Doppler factor
Unknown
Orbital elements
Apogee altitude
341.954 km
Perigee altitude
339.91 km
Semi-major axis
6,719.069 km
Eccentricity
0.00015
Inclination
97.2845°
RAAN
68.9232°
Arg. of periapsis
43.4752°
True anomaly
316.65134°
Mean anomaly
316.6633°
Eccentric anomaly
316.65732°
Mean motion
3.94076 °/min
Orbital period
91.35 mins
BSTAR
0.00071191
Loading maneuver chart data...
Computing Atmospheric mass density...
Loading historical data...
Loading historical data...
Loading historical data...
Loading historical data...
Loading historical data...
Loading historical data...
Loading historical data...

Documentation

Showing up to 5 results
|